Location: Eaton Estates
(41.3089°N, 82.0057°W)
Time: 08:19:01
(UTC+00:00)

NOAA 18 - Pass Details

Date: 03 April 2023
Orbit: 838 x 860 km, 98.9° (Epoch: 03 June)

Event Time Altitude Azimuth Distance (km) Brightness Sun altitude
Exits shadow 03:42:34 34° 329° (NNW) 1,398 6.7 -37.3°
Drops below altitude 10° 03:45:39 10° 340° (NNW) 2,506 8.3 -37.6°
Sets 03:48:04 0° 344° (NNW) 3,446 9.2 -37.8°
